User: anonymous   Login
Location: Castelbiague
(43.0361°N, 0.9246°E)
Time: 08:38:44
(UTC+00:00)
Language:

ARIANE 5 R/B - Orbit

View from above orbital plane
View from above orbital plane
View from above satellite
View from above satellite

Ground track
Ground track

The orbit data is extracted from the following two-line orbital elements,

1 36125U 09073B   21266.86398379 0.00000082  00000-0  11549-4 0    03
2 36125  98.1400 334.8358 0023276 339.7560  20.2719 14.77181256    01
Epoch (UTC): 23 September 2021 20:44:08
Eccentricity: 0.0023276
inclination: 98.1400°
perigee height: 622 km
apogee height: 654 km
right ascension of ascending node: 334.8358°
argument of perigee: 339.7560°
revolutions per day: 14.77181256
mean anomaly at epoch: 20.2719°
orbit number at epoch: 0

The dashed part of the orbit path shows where the satellite is in the earth's shadow,  

DLR